Angleton, TX

6:36 PM CDT on October 14, 2019 (GMT -0500)
Brazoria County

Weather History for KLBX - September, 2019

Change the Weather History Date:

Tuesday, September 17, 2019

  Actual Average Record
Temperature  
Mean Temperature 76 °F -  
Max Temperature 77 °F 85 °F 97 °F (2004)
Min Temperature 75 °F 69 °F 55 °F (2000)
Cooling Degree Days 11    
Growing Degree Days 26 (Base 50)    
Moisture  
Dew Point 74 °F    
Average Humidity 95    
Maximum Humidity 100    
Minimum Humidity 90    
Precipitation  
Precipitation 4.54 in - - ()
Sea Level Pressure  
Sea Level Pressure 29.84 in    
Wind  
Wind Speed 8 mph ()    
Max Wind Speed 18 mph    
Max Gust Speed 29 mph    
Visibility 4.9 miles    
Events Fog , Rain    
Averages and records for this station are not official NWS values.
T = Trace of Precipitation, MM = Missing Value Source: Averaged Metar Reports

Daily Weather History Graph

Daily Weather History Graph

Search for Another Location

Airport or City:

Astronomy

Sep. 17, 2019 Rise Set
Actual Time 7:07 AM CDT 7:24 PM CDT
Civil Twilight 6:43 AM CDT 7:48 PM CDT
Nautical Twilight 6:16 AM CDT 8:16 PM CDT
Astronomical Twilight 5:48 AM CDT 8:44 PM CDT
Moon 9:42 PM CDT (9/17) 10:00 AM CDT (9/17)
Length of Visible Light 13h 04m
Length of Day
12h 17m
Waning Gibbous, 89% of the Moon is Illuminated
Sep 17
Waning Gibbous
Sep 21
Last Quarter
Sep 28
New
Oct 5
First Quarter
Oct 13
Full

Hourly Weather History & Observations

Time (CDT) Temp. Dew Point Humidity Pressure Visibility Wind Dir Wind Speed Gust Speed Precip Events Conditions
12:53 AM 75.0 °F 73.0 °F 94% 29.89 in 10.0 mi North 4.6 mph - N/A   Partly Cloudy
1:53 AM 75.9 °F 73.9 °F 94% 29.89 in 7.0 mi ENE 5.8 mph - 0.04 in Rain Light Rain
2:53 AM 75.0 °F 73.9 °F 96% 29.87 in 10.0 mi NNE 5.8 mph - 0.02 in   Scattered Clouds
3:53 AM 75.0 °F 73.9 °F 96% 29.86 in 10.0 mi North 8.1 mph - 0.04 in   Mostly Cloudy
4:53 AM 75.9 °F 73.9 °F 94% 29.87 in 8.0 mi South 12.7 mph - N/A   Mostly Cloudy
4:58 AM 75.9 °F 73.9 °F 94% 29.87 in 1.8 mi South 11.5 mph - 0.19 in Rain Heavy Rain
5:22 AM 75.0 °F 73.9 °F 96% 29.86 in 2.0 mi North 6.9 mph - 0.60 in Rain Heavy Rain
5:32 AM 75.0 °F 73.9 °F 96% 29.86 in 6.0 mi North 5.8 mph - 0.62 in Rain Light Rain
5:53 AM 75.0 °F 73.9 °F 96% 29.86 in 10.0 mi NE 4.6 mph - 0.62 in   Scattered Clouds
6:11 AM 75.9 °F 73.9 °F 94% 29.86 in 10.0 mi North 3.5 mph - 0.00 in Rain Light Rain
6:48 AM 75.2 °F 73.4 °F 94% 29.87 in 10.0 mi NE 3.5 mph - 0.00 in   Mostly Cloudy
6:53 AM 75.9 °F 73.9 °F 94% 29.87 in 10.0 mi NNE 4.6 mph - 0.00 in   Mostly Cloudy
7:42 AM 75.9 °F 73.9 °F 94% 29.87 in 10.0 mi NE 6.9 mph - 0.00 in Rain Light Rain
7:50 AM 75.2 °F 75.2 °F 100% 29.88 in 6.0 mi NE 6.9 mph - 0.01 in Rain Rain
7:53 AM 75.9 °F 75.0 °F 97% 29.88 in 5.0 mi NE 6.9 mph - 0.02 in Rain Rain
8:20 AM 75.9 °F 75.0 °F 97% 29.88 in 6.0 mi NE 10.4 mph - 0.05 in Rain Rain
8:39 AM 75.9 °F 73.9 °F 94% 29.88 in 5.0 mi NE 8.1 mph - 0.08 in Rain Rain
8:53 AM 75.9 °F 73.9 °F 94% 29.88 in 8.0 mi NE 9.2 mph - 0.10 in Rain Light Rain
9:00 AM 75.9 °F 73.9 °F 94% 29.88 in 8.0 mi NE 10.4 mph - 0.01 in Rain Rain
9:28 AM 75.9 °F 73.9 °F 94% 29.89 in 3.0 mi ENE 9.2 mph - 0.03 in Rain Rain
9:31 AM 75.9 °F 73.9 °F 94% 29.88 in 1.8 mi ENE 11.5 mph - 0.08 in Rain Heavy Rain
9:48 AM 75.2 °F 73.4 °F 94% 29.88 in 3.0 mi NE 6.9 mph - 0.19 in Rain Heavy Rain
9:53 AM 75.9 °F 73.9 °F 94% 29.88 in 4.0 mi NE 8.1 mph - 0.20 in Rain Rain
10:19 AM 75.9 °F 73.9 °F 94% 29.89 in 7.0 mi NE 9.2 mph - 0.04 in Rain Light Rain
10:29 AM 75.9 °F 73.9 °F 94% 29.89 in 4.0 mi ENE 5.8 mph - 0.07 in Rain Rain
10:53 AM 77.0 °F 75.0 °F 94% 29.89 in 6.0 mi ESE 11.5 mph 18.4 mph 0.11 in Rain Light Rain
11:05 AM 77.0 °F 75.0 °F 94% 29.88 in 6.0 mi ENE 5.8 mph - 0.01 in Rain Light Rain
11:19 AM 77.0 °F 75.0 °F 94% 29.88 in 1.8 mi ENE 13.8 mph 21.9 mph 0.07 in Rain Heavy Rain
11:31 AM 77.0 °F 75.0 °F 94% 29.88 in 2.0 mi NE 8.1 mph - 0.12 in Rain Heavy Rain
11:42 AM 77.0 °F 75.0 °F 94% 29.87 in 4.0 mi ENE 11.5 mph - 0.14 in Rain Light Rain
11:48 AM 77.0 °F 75.2 °F 94% 29.87 in 2.5 mi ENE 10.4 mph - 0.16 in Rain Heavy Rain
11:53 AM 77.0 °F 75.0 °F 94% 29.87 in 2.0 mi NE 9.2 mph - 0.18 in Rain Heavy Rain
12:17 PM 77.0 °F 75.0 °F 94% 29.86 in 4.0 mi NNE 11.5 mph 19.6 mph 0.06 in Rain Rain
12:21 PM 77.0 °F 75.0 °F 94% 29.85 in 5.0 mi NE 11.5 mph 19.6 mph 0.06 in Rain Light Rain
12:30 PM 77.0 °F 75.0 °F 94% 29.85 in 1.8 mi ENE 6.9 mph - 0.12 in Rain Heavy Rain
12:40 PM 77.0 °F 75.0 °F 94% 29.84 in 1.2 mi ENE 10.4 mph 17.3 mph 0.17 in Rain Heavy Rain
12:46 PM 77.0 °F 75.0 °F 94% 29.84 in 3.0 mi NE 11.5 mph 17.3 mph 0.17 in Rain Light Rain
12:53 PM 77.0 °F 75.0 °F 94% 29.83 in 6.0 mi NE 12.7 mph 20.7 mph 0.18 in Rain Light Rain
1:04 PM 77.0 °F 75.0 °F 94% 29.81 in 2.5 mi NNE 12.7 mph - 0.03 in Rain Heavy Rain
1:11 PM 75.9 °F 73.9 °F 94% 29.80 in 2.5 mi NNE 13.8 mph 28.8 mph 0.04 in Rain Rain
1:13 PM 77.0 °F 73.9 °F 90% 29.80 in 3.0 mi NNE 16.1 mph 28.8 mph 0.04 in Rain Light Rain
1:20 PM 75.9 °F 73.9 °F 94% 29.79 in 7.0 mi NNE 15.0 mph 25.3 mph 0.04 in Rain Light Rain
1:31 PM 77.0 °F 73.9 °F 90% 29.78 in 5.0 mi NNE 15.0 mph 21.9 mph 0.05 in Rain Rain
1:53 PM 77.0 °F 75.0 °F 94% 29.76 in 3.0 mi North 17.3 mph 24.2 mph 0.11 in Rain Heavy Rain
2:53 PM 75.9 °F 73.9 °F 94% 29.75 in 4.0 mi WNW 9.2 mph - 0.11 in Rain Rain
3:26 PM 75.9 °F 73.9 °F 94% 29.76 in 5.0 mi Variable 5.8 mph - 0.05 in Rain Rain
3:34 PM 75.9 °F 73.9 °F 94% 29.77 in 6.0 mi WSW 6.9 mph - 0.06 in Rain Rain
3:53 PM 77.0 °F 75.0 °F 94% 29.77 in 2.5 mi SW 8.1 mph - 0.12 in Rain Heavy Rain
4:19 PM 77.0 °F 75.0 °F 94% 29.77 in 1.2 mi SW 12.7 mph 20.7 mph 0.17 in Rain Heavy Rain
4:32 PM 75.9 °F 75.0 °F 97% 29.77 in 0.2 mi SW 13.8 mph 24.2 mph 0.57 in Fog , Rain Heavy Rain
4:43 PM 75.9 °F 75.0 °F 97% 29.78 in 1.0 mi SW 11.5 mph - 0.72 in Rain Heavy Rain
4:53 PM 75.9 °F 75.0 °F 97% 29.78 in 1.0 mi SW 11.5 mph 21.9 mph 0.82 in Rain Heavy Rain
4:58 PM 75.9 °F 75.0 °F 97% 29.78 in 0.8 mi SW 15.0 mph 25.3 mph 0.07 in Rain Heavy Rain
5:21 PM 75.9 °F 73.9 °F 94% 29.79 in 1.0 mi SSW 16.1 mph 25.3 mph 0.49 in Rain Heavy Rain
5:23 PM 75.9 °F 73.9 °F 94% 29.79 in 0.8 mi SSW 18.4 mph 25.3 mph 0.54 in Rain Heavy Rain
5:33 PM 75.9 °F 73.9 °F 94% 29.79 in 0.8 mi SSW 17.3 mph 28.8 mph 0.75 in Rain Heavy Rain
5:43 PM 75.9 °F 73.9 °F 94% 29.79 in 0.8 mi SSW 12.7 mph 26.5 mph 0.91 in Rain Heavy Rain
5:53 PM 75.9 °F 73.9 °F 94% 29.80 in 1.5 mi SSW 11.5 mph 20.7 mph 0.97 in Rain Heavy Rain
6:28 PM 75.9 °F 75.0 °F 97% 29.81 in 0.8 mi SSW 10.4 mph - 0.29 in Rain Heavy Rain
6:33 PM 75.9 °F 75.0 °F 97% 29.81 in 1.0 mi SSW 9.2 mph - 0.36 in Rain Heavy Rain
6:51 PM 75.2 °F 75.2 °F 100% 29.82 in 1.8 mi SSW 10.4 mph - 0.56 in Rain Heavy Rain
6:53 PM 75.9 °F 75.0 °F 97% 29.81 in 1.8 mi SSW 10.4 mph - 0.59 in Rain Heavy Rain
7:08 PM 75.9 °F 73.9 °F 94% 29.82 in 3.0 mi South 10.4 mph - 0.08 in Rain Heavy Rain
7:31 PM 75.9 °F 73.9 °F 94% 29.82 in 6.0 mi South 10.4 mph - 0.14 in Rain Rain
7:53 PM 75.9 °F 73.9 °F 94% 29.82 in 8.0 mi South 10.4 mph - 0.18 in Rain Light Rain
8:31 PM 75.9 °F 73.9 °F 94% 29.83 in 9.0 mi SSW 12.7 mph - 0.01 in Rain Light Rain
8:53 PM 75.9 °F 73.0 °F 91% 29.84 in 8.0 mi SSW 12.7 mph - 0.03 in Rain Light Rain
9:53 PM 75.9 °F 73.9 °F 94% 29.86 in 6.0 mi South 9.2 mph - 0.05 in Rain Light Rain
10:36 PM 77.0 °F 75.0 °F 94% 29.86 in 10.0 mi South 10.4 mph - 0.05 in Rain Light Rain
10:43 PM 77.0 °F 75.0 °F 94% 29.86 in 10.0 mi SSW 9.2 mph - 0.05 in   Overcast
10:53 PM 77.0 °F 75.0 °F 94% 29.86 in 10.0 mi South 9.2 mph - 0.05 in   Overcast
11:08 PM 77.0 °F 75.0 °F 94% 29.87 in 10.0 mi SSW 11.5 mph - N/A   Overcast
11:39 PM 75.9 °F 73.9 °F 94% 29.87 in 10.0 mi SSW 9.2 mph - 0.00 in   Mostly Cloudy